Hourly Data Report for October 23, 2019

SHEARWATER RCS
NOVA SCOTIA
Current Station Operator: ECCC - MSC

44°37'47.000" N
63°30'48.000" W
24.00 m
8205092
71264
AAW

Download Data

Hourly Data (October 2019)
Hourly Data Report for October 23, 2019
TIME
LST
Temp Definition
°C
Dew Point Definition
°C
Rel Hum Definition
%
Precip. Amount Definition
mm

Wind Dir Definition
10's deg

Wind Spd Definition
km/h
Visibility Definition
km
Stn Press Definition
kPa
Hmdx Definition


Wind Chill Definition


Weather Definition


00:00 9.7 6.1 78 0.0 9 18   102.12     LegendNANA
01:00 9.7 6.1 79 0.0 10 17   102.10     LegendNANA
02:00 9.7 6.2 79 0.0 10 19   102.01     LegendNANA
03:00 9.9 6.5 80 0.0 10 18   102.01     LegendNANA
04:00 10.0 6.5 79 0.0 10 20   101.96     LegendNANA
05:00 10.1 6.7 80 0.0 10 22   101.88     LegendNANA
06:00 10.3 7.0 80 0.0 11 21   101.88     LegendNANA
07:00 10.6 7.1 79 0.0 10 25   101.82     LegendNANA
08:00 11.1 7.4 78 0.0 10 26   101.78     LegendNANA
09:00 11.6 7.8 78 0.0 11 25   101.75     LegendNANA
10:00 11.8 8.6 81 0.0 11 26   101.71     LegendNANA
11:00 12.1 9.1 82 0.0 11 27   101.57     LegendNANA
12:00 11.8 9.4 85 0.0 10 24   101.47     LegendNANA
13:00 11.5 9.9 90 0.0 10 22   101.32     LegendNANA
14:00 11.4 10.2 93 1.8 10 28   101.09     LegendNANA
15:00 11.5 10.6 94 2.4 10 27   100.98     LegendNANA
16:00 12.0 11.3 96 2.8 11 29   100.78     LegendNANA
17:00 12.5 11.9 96 0.0 12 33   100.58     LegendNANA
18:00 13.0 12.3 96 4.1 13 38   100.45     LegendNANA
19:00 13.4 12.7 96 9.0 16 20   100.55     LegendNANA
20:00 14.2 13.5 96 1.8 16 30   100.47     LegendNANA
21:00 14.1 13.4 96 0.0 17 22   100.45     LegendNANA
22:00 14.4 13.8 96 0.0 21 16   100.55     LegendNANA
23:00 13.7 13.0 96 0.0 24 15   100.63     LegendNANA

Notes on Data Quality.

Legend

  • E = Estimated
  • M = Missing
  • NA = Not Available*
  • [empty] = Indicates an unobserved value
Date modified: